www.pogodaiklimat.ru

Погода и климат >> Архив погоды >> Антарктида >> Casey (Peterson air)


ПОГОДА в Casey (Peterson air)

  • Прогноз погоды в Casey (Peterson air)
  • Монитор погоды в Casey (Peterson air)
  • Климат города

АРХИВ ПОГОДЫ в Casey (Peterson air)

Время (UTC), дата Ветер
(напр.,м/с)
 
Видим.   Явления Облачность Т
(С)
Тd
(С)
f
(%)
Тe
(С)
Тes
(С)
Комфортность P
(гПа)
Po
(гПа)
Тmin
(С)
Tmax
(С)
R
(мм)
R24
(мм)
S
(см)
12 15.11 СВ 4
{11}
н/о н/о -8.6 -15 -15 1004.7
15 15.11 СВ 6
{12}
н/о н/о -12.1 -21 -21 1003.5
21 15.11 В 7
{14}
н/о н/о -14.5 -24 -24 1017.7
00 16.11 В 6
{15}
н/о н/о -12.1 -21 -21 1023.5
03 16.11 СВ 4
{10}
н/о н/о -7.5 -13 -13 1028.2
09 16.11 0 н/о 1032.9
12 16.11 штиль 0 н/о н/о -7.9 -8 -8 1037.7
15 16.11 СВ 2
{5}
н/о н/о -10.8 -15 -15 1036.5
18 16.11 0
{6}
н/о н/о -12.1 1036.5
21 16.11 СВ 3
{7}
н/о н/о -12.4 -19 -19 1032.9
00 17.11 В 1
{3}
н/о н/о -11.4 -14 -14 1032.9
03 17.11 СЗ 3
{10}
н/о н/о -6.8 -11 -11 1028.2
12 17.11 СЗ 2
{7}
н/о н/о -9.1 1028.2
15 17.11 СЗ 3
{8}
н/о н/о -11.0 -16 -16 1027.1
18 17.11 С 2
{6}
н/о н/о -11.7 -16 -16 1027.1
21 17.11 С 3
{8}
н/о н/о -12.2 -18 -18 1031.8
00 18.11 СВ 5
{11}
н/о н/о -12.4 -20 -20 1032.9
03 18.11 Ю 3
{11}
н/о н/о -8.8 -14 -14 1037.7
06 18.11 СЗ 3
{9}
н/о н/о -6.6 -11 -11 1037.7
09 18.11 С 4
{11}
н/о н/о -7.5 -13 -13 1042.4
12 18.11 В 5
{14}
н/о н/о -9.5 -17 -17 1042.4
15 18.11 В 9
{22}
н/о н/о -11.2 -22 -22 1045.9
18 18.11 В 13
{32}
н/о н/о -11.3 -23 -23 1041.2
21 18.11 ЮВ 14
{33}
н/о н/о -11.4 -24 -24 1041.2
00 19.11 ЮВ 14
{35}
н/о н/о -11.0 -23 -23 1042.4
06 19.11 ЮВ 15
{40}
н/о н/о -8.3 -20 -20 1042.4
09 19.11 ЮВ 13
{33}
н/о н/о -8.2 -19 -19 1042.4
12 19.11 ЮВ 13
{35}
н/о н/о -8.8 -20 -20 1042.4
15 19.11 ЮВ 9
{23}
н/о н/о -9.2 -19 -19 1041.2
18 19.11 В 9
{38}
н/о н/о -9.1 -19 -19 1041.2
21 19.11 ЮВ 9
{25}
н/о н/о -8.9 -18 -18 1041.2
00 20.11 В 7
{22}
н/о н/о -7.8 -16 -16 1042.4
09 20.11 ЮВ 10
{23}
н/о н/о -5.4 -14 -14 1037.7
12 20.11 ЮВ 8
{19}
н/о н/о -7.6 -16 -16 1032.9
15 20.11 ЮВ 9
{19}
н/о н/о -10.1 -20 -20 1031.8
18 20.11 ЮВ 9
{22}
н/о н/о -12.5 -23 -23 1027.1
21 20.11 ЮВ 11
{27}
н/о н/о -11.7 -23 -23 1023.5
00 21.11 ЮВ 10
{24}
н/о н/о -10.5 -21 -21 1018.8
03 21.11 ЮВ 11
{25}
н/о н/о -6.4 -15 -15 1009.4
09 21.11 В 10
{24}
н/о н/о -5.7 -14 -14 1004.7
12 21.11 ЮВ 9
{22}
н/о н/о -7.4 -16 -16 1004.7
15 21.11 ЮВ 7
{18}
н/о н/о -10.3 -19 -19 1003.5
18 21.11 В 9
{23}
н/о н/о -11.3 -21 -21 998.8
21 21.11 В 9
{22}
н/о н/о -13.0 -24 -24 994.1
00 22.11 В 6
{12}
н/о н/о -10.5 -19 -19 995.3
03 22.11 С 4
{10}
н/о н/о -5.1 -10 -10 995.3

 

Местоположение метеостанции Casey (Peterson air) (Антарктида): широта -66.60 долгота 111.18 высота над уровнем моря 500 м.

В архиве по умолчанию представлена погода в Casey (Peterson air) за последнюю неделю. Архивные данные за месяц целиком и за предыдущие месяцы, начиная с января 2011 года, Вы можете получить, выбрав интересующий диапазон дат из раскрывающегося списка и нажав кнопку "Ввод!".

Внимание! Время в таблицах - всемирное. Для получения местного времени необходимо прибавить поправку, которая в Casey (Peterson air) равна 0 ч.

Смотрите также архив погоды в соседних городах и на ближайших метеорологических станциях:

Погода в Wilkins Runway East (Антарктида) (18 км)
Погода в Casey Skiway South (Антарктида) (40 км)
Погода в Casey (Антарктида) (46 км)
Погода в Casey Snyder Rocks (Антарктида) (152 км)
Погода в Oazic Bangera (Антарктида) (465 км)
Погода в Mirnyj (Антарктида) (800 км)
Погода в Dome C II (Антарктида) (1042 км)
Погода в Vostok (Антарктида) (1327 км)

Пояснения к столбцам:

Ветер - указаны скорость ветра в м/с - средняя за 10 мин, порывы в срок и между сроками (в фигурных скобках) и направление, откуда дует ветер: С - северный, СВ - северо-восточный, В - восточный, ЮВ - юго-восточный, Ю - южный, ЮЗ - юго-западный, З - западный, СЗ - северо-западный.
Видимость - горизонтальная дальность видимости в метрах или километрах. При видимости от 1 до 10 км при отсутствии осадков обычно наблюдается дымка, при ухудшении видимости до 1 км и менее - туман. В сухую погоду видимость может ухудшаться дымом, пылью или мглою.
Явления - указаны атмосферные явления, наблюдавшиеся в срок или в последний час перед сроком; фигурными скобками обозначены явления, наблюдавшиеся между сроками (за 1-3 часа до срока); квадратными скобками обозначены град или гололедные отложения с указанием их диаметра в мм.
Облачность - указаны через наклонную черту общая и нижняя облачность в баллах и высота нижней границы облаков в метрах; квадратными скобками обозначены формы облаков: Ci - перистые, Cs - перисто-слоистые, Cc - перисто-кучевые, Ac - высококучевые, As - высокослоистые, Sc - слоисто-кучевые, Ns - слоисто-дождевые, Cu - кучевые, Cb - кучево-дождевые. Подробнее классификацию облаков см. в Атласе облаков (PDF).
T - Температура воздуха - температура, измеренная на высоте 2 м над землей.
Td - Температура точки росы - температура, при понижении до которой содержащийся в воздухе водяной пар достигнет насыщения.
f - Относительная влажность воздуха - влажноcть воздуха, измеренная на высоте 2 м над землей.
Te - Эффективная температура - температура, которую ощущает одетый по сезону человек в тени. Характеристика душности погоды. При расчете учитывается влияние влажности воздуха и скорости ветра на теплоощущения человека.
Tes - Эффективная температура на солнце - температура, которую ощущает человек, с поправкой на солнечный нагрев. Характеристика знойности погоды. Зависит от высоты солнца над горизонтом, облачности и скорости ветра. Ночью, в пасмурную погоду, а также при ветре 12 м/с и более поправка равна нулю.
P - Атмосферное давление - приведенное к уровню моря атмосферное давление.
Po - Атмосферное давление - измеренное на уровне метеостанции атмосферное давление.
Tmin - Минимальная температура - минимум температуры воздуха на высоте 2 м над землей.
Tmax - Максимальная температура - максимум температуры воздуха на высоте 2 м над землей.
R - Количество осадков - Количество выпавших осадков за период времени, мм. При наведении курсора мыши на число - период времени, за который выпало указанное количество осадков.
R24 - Количество осадков - Количество выпавших осадков за 24 часа, мм.
S - Снежный покров - Высота снежного покрова, см. При наведении курсора мыши на число - состояние снежного покрова и степень покрытия местности в баллах.